This is the latest recevied weather packets stored in our database for station/object KD8PH. If no packets are shown the sender has not sent any weather packets the latest 10 day(s).
| Time | Temp. | Humidity | Pressure | Rain* | Wind** | Luminosity | Snow |
|---|---|---|---|---|---|---|---|
| 1777955146 | 15° C | 80% | 1012.1 hPa | 0 mm | - | - | - |
| 1777954541 | 15.56° C | 80% | 1012 hPa | 0 mm | - | - | - |
| 1777953948 | 15.56° C | 78% | 1012 hPa | 0 mm | - | - | - |
| 1777953340 | 15.56° C | 77% | 1012.1 hPa | 0 mm | - | - | - |
| 1777952747 | 16.11° C | 77% | 1012 hPa | 0 mm | - | - | - |
| 1777952146 | 16.11° C | 77% | 1012.1 hPa | 0 mm | - | - | - |
| 1777951538 | 16.11° C | 76% | 1012 hPa | 0 mm | - | - | - |
| 1777950948 | 16.67° C | 75% | 1012 hPa | 0 mm | - | - | - |
| 1777950351 | 16.67° C | 75% | 1011.9 hPa | 0 mm | - | - | - |
| 1777949751 | 17.22° C | 74% | 1012 hPa | 0 mm | - | - | - |
| 1777949135 | 17.22° C | 72% | 1011.9 hPa | 0 mm | - | - | - |
| 1777948538 | 17.78° C | 69% | 1011.9 hPa | 0 mm | - | - | - |
| 1777947957 | 18.33° C | 70% | 1011.7 hPa | 0 mm | - | - | - |
| 1777947339 | 19.44° C | 67% | 1011.6 hPa | 0 mm | - | - | - |
| 1777946736 | 18.89° C | 64% | 1011.6 hPa | 0 mm | - | - | - |
| 1777946155 | 18.89° C | 64% | 1011.5 hPa | 0 mm | - | - | - |
| 1777945542 | 18.89° C | 65% | 1011.4 hPa | 0 mm | - | - | - |
| 1777944943 | 19.44° C | 65% | 1011.4 hPa | 0 mm | - | - | - |
| 1777944361 | 20° C | 61% | 1011.3 hPa | 0 mm | - | - | - |
| 1777943745 | 20.56° C | 58% | 1011.3 hPa | 0 mm | - | - | - |
| 1777943154 | 21.67° C | 55% | 1011.2 hPa | 0 mm | - | - | - |
| 1777942538 | 22.22° C | 53% | 1011.1 hPa | 0 mm | - | - | - |
| 1777941940 | 22.78° C | 49% | 1010.9 hPa | 0 mm | - | - | - |
| 1777941348 | 23.33° C | 48% | 1010.9 hPa | 0 mm | - | - | - |
| 1777940745 | 23.33° C | 44% | 1010.8 hPa | 0 mm | - | - | - |
* Rain latest hour (hover to see other rain measurements)
** Current wind speed in m/s (hover to see current wind gust speed)